EN

Hourly Weather Al-Kunajtira

Today, 20 January, Wednesday

Time Temperature Precipitation Wind Pressure Humidity
00:00 +7°C° 0.5 mm 1 mps 733 mmHg 89%
01:00 +7°C° 0.5 mm 1 mps 733 mmHg 91%
02:00 +5°C° 0 mm 3 mps 732 mmHg 92%
03:00 +5°C° 0.6 mm 2 mps 733 mmHg 93%
04:00 +5°C° 0.6 mm 2 mps 733 mmHg 93%
05:00 +5°C° 0.6 mm 2 mps 733 mmHg 94%
06:00 +4°C° 0.6 mm 2 mps 733 mmHg 94%
07:00 +3°C° 0.6 mm 3 mps 733 mmHg 93%
08:00 +3°C° 0 mm 3 mps 734 mmHg 93%
09:00 +3°C° 0.1 mm 3 mps 734 mmHg 92%
10:00 +3°C° 0.1 mm 3 mps 735 mmHg 92%
11:00 +3°C° 0.1 mm 3 mps 735 mmHg 91%
12:00 +4°C° 0 mm 3 mps 735 mmHg 85%
13:00 +5°C° 0 mm 2 mps 736 mmHg 78%
14:00 +6°C° 0 mm 2 mps 736 mmHg 72%
15:00 +6°C° 0 mm 2 mps 737 mmHg 70%
16:00 +5°C° 0 mm 2 mps 737 mmHg 67%
17:00 +4°C° 0 mm 2 mps 738 mmHg 65%
18:00 +4°C° 0 mm 2 mps 739 mmHg 62%
19:00 +3°C° 0 mm 2 mps 739 mmHg 60%
20:00 +3°C° 0 mm 2 mps 739 mmHg 57%
21:00 +3°C° 0 mm 2 mps 740 mmHg 57%
22:00 +2°C° 0 mm 2 mps 741 mmHg 57%
23:00 +2°C° 0 mm 2 mps 742 mmHg 57%

Tomorrow, 21 January, Thursday

Time Temperature Precipitation Wind Pressure Humidity
00:00 +3°C° 0 mm 1 mps 742 mmHg 56%
01:00 +3°C° 0 mm 1 mps 742 mmHg 56%
02:00 +3°C° 0 mm 1 mps 742 mmHg 55%
03:00 +3°C° 0 mm 1 mps 742 mmHg 56%
04:00 +3°C° 0 mm 1 mps 743 mmHg 56%
05:00 +3°C° 0 mm 1 mps 743 mmHg 56%
06:00 +4°C° 0 mm 1 mps 743 mmHg 56%
07:00 +4°C° 0 mm 1 mps 743 mmHg 55%
08:00 +4°C° 0 mm 0 mps 744 mmHg 54%
09:00 +5°C° 0 mm 0 mps 744 mmHg 51%
10:00 +7°C° 0 mm 1 mps 744 mmHg 49%
11:00 +9°C° 0 mm 1 mps 745 mmHg 46%
12:00 +9°C° 0 mm 1 mps 744 mmHg 45%
13:00 +10°C° 0 mm 1 mps 744 mmHg 45%
14:00 +10°C° 0 mm 1 mps 743 mmHg 45%
15:00 +9°C° 0 mm 1 mps 744 mmHg 51%
16:00 +8°C° 0 mm 1 mps 744 mmHg 56%
17:00 +7°C° 0 mm 1 mps 744 mmHg 62%
18:00 +7°C° 0 mm 1 mps 744 mmHg 63%
19:00 +5°C° 0 mm 0 mps 745 mmHg 63%
20:00 +5°C° 0 mm 0 mps 745 mmHg 64%
21:00 +5°C° 0 mm 0 mps 745 mmHg 64%
22:00 +5°C° 0 mm 0 mps 745 mmHg 64%
23:00 +5°C° 0 mm 1 mps 745 mmHg 64%

Day after tomorrow, 22 January, Friday

Time Temperature Precipitation Wind Pressure Humidity
00:00 +5°C° 0 mm 1 mps 745 mmHg 63%
01:00 +5°C° 0 mm 1 mps 745 mmHg 63%
02:00 +4°C° 0 mm 1 mps 744 mmHg 63%
03:00 +4°C° 0 mm 1 mps 744 mmHg 64%
04:00 +3°C° 0 mm 2 mps 744 mmHg 65%
05:00 +2°C° 0 mm 2 mps 745 mmHg 66%
06:00 +3°C° 0 mm 2 mps 745 mmHg 66%
07:00 +3°C° 0 mm 2 mps 745 mmHg 65%
08:00 +3°C° 0 mm 2 mps 745 mmHg 65%
09:00 +5°C° 0 mm 2 mps 745 mmHg 60%
10:00 +5°C° 0 mm 3 mps 745 mmHg 55%
11:00 +7°C° 0 mm 3 mps 745 mmHg 50%
12:00 +8°C° 0 mm 3 mps 744 mmHg 48%
13:00 +9°C° 0 mm 3 mps 744 mmHg 47%
14:00 +9°C° 0 mm 3 mps 743 mmHg 45%
15:00 +8°C° 0 mm 3 mps 743 mmHg 49%
16:00 +7°C° 0 mm 3 mps 743 mmHg 52%
17:00 +6°C° 0 mm 2 mps 743 mmHg 56%
18:00 +6°C° 0 mm 2 mps 743 mmHg 57%
19:00 +5°C° 0 mm 2 mps 743 mmHg 58%
20:00 +5°C° 0 mm 2 mps 743 mmHg 59%
21:00 +5°C° 0 mm 2 mps 743 mmHg 60%
22:00 +4°C° 0 mm 2 mps 743 mmHg 61%
23:00 +4°C° 0 mm 2 mps 743 mmHg 62%

23 January, Saturday

Time Temperature Precipitation Wind Pressure Humidity
00:00 +4°C° 0 mm 2 mps 742 mmHg 62%
01:00 +3°C° 0 mm 2 mps 742 mmHg 62%
02:00 +3°C° 0 mm 2 mps 742 mmHg 63%
03:00 +3°C° 0 mm 2 mps 742 mmHg 63%
04:00 +3°C° 0 mm 2 mps 741 mmHg 63%
05:00 +3°C° 0 mm 2 mps 741 mmHg 63%
06:00 +3°C° 0 mm 2 mps 741 mmHg 62%
07:00 +3°C° 0 mm 2 mps 742 mmHg 61%
08:00 +4°C° 0 mm 2 mps 742 mmHg 60%
09:00 +5°C° 0 mm 2 mps 742 mmHg 56%
10:00 +5°C° 0 mm 3 mps 742 mmHg 52%
11:00 +8°C° 0 mm 3 mps 742 mmHg 48%
12:00 +9°C° 0 mm 3 mps 741 mmHg 46%
13:00 +9°C° 0 mm 3 mps 741 mmHg 45%
14:00 +10°C° 0 mm 3 mps 740 mmHg 43%
15:00 +9°C° 0 mm 3 mps 740 mmHg 47%
16:00 +8°C° 0 mm 3 mps 740 mmHg 51%
17:00 +7°C° 0 mm 2 mps 740 mmHg 55%
18:00 +6°C° 0 mm 2 mps 740 mmHg 56%
19:00 +6°C° 0 mm 2 mps 740 mmHg 58%
20:00 +5°C° 0 mm 2 mps 741 mmHg 59%
21:00 +5°C° 0 mm 2 mps 741 mmHg 60%
22:00 +5°C° 0 mm 2 mps 741 mmHg 62%
23:00 +4°C° 0 mm 2 mps 741 mmHg 63%

24 January, Sunday

Time Temperature Precipitation Wind Pressure Humidity
00:00 +4°C° 0 mm 2 mps 741 mmHg 63%
01:00 +4°C° 0 mm 2 mps 740 mmHg 64%
02:00 +3°C° 0 mm 2 mps 740 mmHg 65%
03:00 +3°C° 0 mm 2 mps 740 mmHg 65%
04:00 +3°C° 0 mm 2 mps 740 mmHg 65%
05:00 +3°C° 0 mm 2 mps 740 mmHg 65%
06:00 +3°C° 0 mm 2 mps 740 mmHg 64%
07:00 +4°C° 0 mm 2 mps 741 mmHg 63%
08:00 +4°C° 0 mm 2 mps 741 mmHg 62%
09:00 +5°C° 0 mm 2 mps 741 mmHg 58%
10:00 +7°C° 0 mm 3 mps 741 mmHg 53%
11:00 +8°C° 0 mm 3 mps 741 mmHg 49%
12:00 +9°C° 0 mm 3 mps 740 mmHg 48%
13:00 +10°C° 0 mm 3 mps 740 mmHg 47%
14:00 +10°C° 0 mm 3 mps 740 mmHg 46%
15:00 +9°C° 0 mm 3 mps 740 mmHg 50%
16:00 +8°C° 0 mm 3 mps 740 mmHg 54%
17:00 +8°C° 0 mm 3 mps 739 mmHg 57%
18:00 +7°C° 0 mm 2 mps 740 mmHg 58%
19:00 +7°C° 0 mm 2 mps 740 mmHg 59%
20:00 +6°C° 0 mm 2 mps 740 mmHg 60%
21:00 +6°C° 0 mm 2 mps 740 mmHg 61%
22:00 +6°C° 0 mm 2 mps 740 mmHg 62%
23:00 +5°C° 0 mm 2 mps 740 mmHg 63%

25 January, Monday

Time Temperature Precipitation Wind Pressure Humidity
00:00 +5°C° 0 mm 2 mps 739 mmHg 63%
01:00 +5°C° 0 mm 2 mps 739 mmHg 64%
02:00 +4°C° 0 mm 2 mps 739 mmHg 64%
03:00 +4°C° 0 mm 2 mps 739 mmHg 65%
04:00 +4°C° 0 mm 2 mps 739 mmHg 65%
05:00 +3°C° 0 mm 2 mps 739 mmHg 65%
06:00 +4°C° 0 mm 2 mps 739 mmHg 64%
07:00 +4°C° 0 mm 2 mps 739 mmHg 63%
08:00 +5°C° 0 mm 2 mps 740 mmHg 62%
09:00 +7°C° 0 mm 2 mps 740 mmHg 57%
10:00 +8°C° 0 mm 3 mps 740 mmHg 52%
11:00 +10°C° 0 mm 3 mps 739 mmHg 47%
12:00 +10°C° 0 mm 3 mps 739 mmHg 46%
13:00 +11°C° 0 mm 3 mps 739 mmHg 44%
14:00 +12°C° 0 mm 3 mps 739 mmHg 43%
15:00 +12°C° 0 mm 2 mps 739 mmHg 47%
16:00 +10°C° 0 mm 2 mps 739 mmHg 50%
17:00 +9°C° 0 mm 2 mps 739 mmHg 54%
18:00 +9°C° 0 mm 2 mps 739 mmHg 55%
19:00 +8°C° 0 mm 2 mps 739 mmHg 57%
20:00 +7°C° 0 mm 2 mps 739 mmHg 58%
21:00 +8°C° 0 mm 1 mps 739 mmHg 59%
22:00 +7°C° 0 mm 1 mps 739 mmHg 60%
23:00 +7°C° 0 mm 1 mps 739 mmHg 61%
Show more